| time (UTC) | temp C | wind direction | speed KPH | gust KPH | rain 1hr cm | rain 24hr cm | rain mn cm | humidity % | barometer mb |
| 20260505112803 | 0 | 31 | 0.0 | 0.0 | 0.00 | 0.00 | 0.00 | 68 | 1008.2 |
| 20260505111804 | 0 | 276 | 0.0 | 0.0 | 0.00 | 0.00 | 0.00 | 68 | 1007.8 |
| 20260505111304 | 0 | 276 | 0.0 | 0.0 | 0.00 | 0.00 | 0.00 | 68 | 1007.7 |
| 20260505110803 | 0 | 276 | 0.0 | 1.6 | 0.00 | 0.00 | 0.00 | 68 | 1007.6 |
| 20260505101804 | 0 | 275 | 1.6 | 4.8 | 0.00 | 0.00 | 0.00 | 74 | 1007.2 |
| 20260505101304 | 0 | 275 | 1.6 | 4.8 | 0.00 | 0.00 | 0.00 | 74 | 1007.2 |
| 20260505100803 | 1 | 275 | 3.2 | 4.8 | 0.00 | 0.00 | 0.00 | 74 | 1007.2 |
| 20260505100303 | 1 | 271 | 3.2 | 4.8 | 0.00 | 0.00 | 0.00 | 74 | 1007.1 |
| 20260505095304 | 0 | 262 | 3.2 | 4.8 | 0.00 | 0.00 | 0.00 | 74 | 1007.2 |
| 20260505094803 | 0 | 288 | 3.2 | 4.8 | 0.00 | 0.00 | 0.00 | 74 | 1007.2 |
| 20260505094303 | 1 | 288 | 0.0 | 4.8 | 0.00 | 0.00 | 0.00 | 74 | 1007.1 |
| 20260505093304 | 1 | 288 | 0.0 | 1.6 | 0.00 | 0.00 | 0.00 | 74 | 1006.9 |
| 20260505092803 | 1 | 288 | 1.6 | 3.2 | 0.00 | 0.00 | 0.00 | 74 | 1006.9 |
| 20260505092305 | 1 | 288 | 0.0 | 3.2 | 0.00 | 0.00 | 0.00 | 74 | 1006.9 |
| 20260505091804 | 1 | 288 | 1.6 | 4.8 | 0.00 | 0.00 | 0.00 | 74 | 1006.9 |
| 20260505090304 | 1 | 0 | 0.0 | 1.6 | 0.00 | 0.00 | 0.00 | 71 | 1006.7 |
| 20260505085803 | 1 | 0 | 0.0 | 3.2 | 0.00 | 0.00 | 0.00 | 58 | 1006.6 |
| 20260505085304 | 1 | 0 | 0.0 | 3.2 | 0.00 | 0.00 | 0.00 | 58 | 1006.6 |
| 20260505084803 | 1 | 0 | 0.0 | 3.2 | 0.00 | 0.00 | 0.00 | 58 | 1006.5 |
| 20260505084304 | 1 | 0 | 1.6 | 3.2 | 0.00 | 0.00 | 0.00 | 58 | 1006.3 |
| 20260505083803 | 1 | 0 | 0.0 | 3.2 | 0.00 | 0.00 | 0.00 | 58 | 1006.2 |
| 20260505083304 | 1 | 0 | 1.6 | 4.8 | 0.00 | 0.00 | 0.00 | 58 | 1006.2 |
| 20260505082304 | 2 | 0 | 1.6 | 4.8 | 0.00 | 0.00 | 0.00 | 58 | 1005.9 |
| 20260505081804 | 2 | 0 | 3.2 | 4.8 | 0.00 | 0.00 | 0.00 | 58 | 1005.9 |
| 20260505081304 | 2 | 0 | 3.2 | 4.8 | 0.00 | 0.00 | 0.00 | 58 | 1005.9 |
| 20260505080804 | 2 | 0 | 3.2 | 4.8 | 0.00 | 0.00 | 0.00 | 58 | 1005.9 |
| 20260505080303 | 2 | 0 | 1.6 | 4.8 | 0.00 | 0.00 | 0.00 | 58 | 1006.0 |
| 20260505075804 | 2 | 0 | 1.6 | 3.2 | 0.00 | 0.00 | 0.00 | 54 | 1006.0 |
| 20260505073304 | 2 | 0 | 1.6 | 4.8 | 0.00 | 0.00 | 0.00 | 54 | 1005.6 |
| 20260505072804 | 2 | 0 | 3.2 | 8.0 | 0.00 | 0.00 | 0.00 | 54 | 1005.7 |
| 20260505071804 | 3 | 0 | 1.6 | 3.2 | 0.00 | 0.00 | 0.00 | 54 | 1005.7 |
| 20260505071304 | 3 | 0 | 0.0 | 4.8 | 0.00 | 0.00 | 0.00 | 54 | 1005.7 |
| 20260505070804 | 3 | 0 | 1.6 | 4.8 | 0.00 | 0.00 | 0.00 | 54 | 1005.7 |
| 20260505065804 | 3 | 0 | 3.2 | 4.8 | 0.00 | 0.00 | 0.00 | 50 | 1005.8 |
| 20260505065304 | 3 | 0 | 4.8 | 9.7 | 0.00 | 0.00 | 0.00 | 50 | 1005.7 |
| 20260505064803 | 3 | 0 | 4.8 | 8.0 | 0.00 | 0.00 | 0.00 | 50 | 1005.7 |
| 20260505064304 | 3 | 0 | 3.2 | 4.8 | 0.00 | 0.00 | 0.00 | 50 | 1005.7 |
| 20260505063803 | 3 | 0 | 1.6 | 4.8 | 0.00 | 0.00 | 0.00 | 50 | 1005.7 |
| 20260505063303 | 3 | 0 | 3.2 | 8.0 | 0.00 | 0.00 | 0.00 | 50 | 1005.8 |
| 20260505062804 | 3 | 0 | 1.6 | 4.8 | 0.00 | 0.00 | 0.00 | 50 | 1005.8 |
| 20260505062304 | 3 | 0 | 0.0 | 1.6 | 0.00 | 0.00 | 0.00 | 50 | 1005.9 |
| 20260505061804 | 3 | 0 | 0.0 | 4.8 | 0.00 | 0.00 | 0.00 | 50 | 1005.8 |
| 20260505061304 | 3 | 0 | 0.0 | 3.2 | 0.00 | 0.00 | 0.00 | 50 | 1005.8 |
| 20260505060804 | 2 | 0 | 1.6 | 3.2 | 0.00 | 0.00 | 0.00 | 50 | 1005.8 |
| 20260505055803 | 3 | 0 | 1.6 | 3.2 | 0.00 | 0.00 | 0.00 | 55 | 1005.8 |
| 20260505055304 | 3 | 0 | 0.0 | 3.2 | 0.00 | 0.00 | 0.00 | 55 | 1005.8 |
| 20260505054304 | 3 | 0 | 0.0 | 1.6 | 0.00 | 0.00 | 0.00 | 55 | 1005.8 |
| 20260505053804 | 3 | 0 | 0.0 | 1.6 | 0.00 | 0.00 | 0.00 | 55 | 1005.7 |
| 20260505053304 | 3 | 0 | 0.0 | 0.0 | 0.00 | 0.00 | 0.00 | 55 | 1005.7 |
| 20260505052804 | 3 | 0 | 1.6 | 3.2 | 0.00 | 0.00 | 0.00 | 55 | 1005.8 |
| 20260505051804 | 3 | 0 | 0.0 | 0.0 | 0.00 | 0.00 | 0.00 | 55 | 1005.6 |
| 20260505050813 | 4 | 0 | 0.0 | 1.6 | 0.00 | 0.00 | 0.00 | 55 | 1005.5 |
| 20260505050303 | 4 | 0 | 1.6 | 4.8 | 0.00 | 0.00 | 0.00 | 55 | 1005.5 |
| 20260505041304 | 6 | 0 | 0.0 | 1.6 | 0.00 | 0.00 | 0.00 | 47 | 1005.5 |
| 20260505040803 | 6 | 0 | 1.6 | 4.8 | 0.00 | 0.00 | 0.00 | 47 | 1005.5 |
| 20260505040303 | 6 | 0 | 3.2 | 8.0 | 0.00 | 0.00 | 0.00 | 47 | 1005.5 |
| 20260505035803 | 6 | 0 | 3.2 | 8.0 | 0.00 | 0.00 | 0.00 | 45 | 1005.5 |
| 20260505035304 | 6 | 0 | 3.2 | 9.7 | 0.00 | 0.00 | 0.00 | 45 | 1005.5 |
| 20260505034803 | 6 | 0 | 3.2 | 8.0 | 0.00 | 0.00 | 0.00 | 45 | 1005.4 |
| 20260505034303 | 6 | 0 | 1.6 | 4.8 | 0.00 | 0.00 | 0.00 | 45 | 1005.5 |
| 20260505033803 | 6 | 0 | 4.8 | 8.0 | 0.00 | 0.00 | 0.00 | 45 | 1005.5 |
| 20260505033303 | 7 | 0 | 4.8 | 14.5 | 0.00 | 0.00 | 0.00 | 45 | 1005.5 |
| 20260505032804 | 7 | 0 | 4.8 | 9.7 | 0.00 | 0.00 | 0.00 | 45 | 1005.6 |
| 20260505032304 | 7 | 0 | 3.2 | 12.9 | 0.00 | 0.00 | 0.00 | 45 | 1005.5 |
| 20260505031304 | 7 | 0 | 6.4 | 19.3 | 0.00 | 0.00 | 0.00 | 45 | 1005.4 |
| 20260505030303 | 7 | 0 | 6.4 | 16.1 | 0.00 | 0.00 | 0.00 | 45 | 1005.3 |
| 20260505025803 | 7 | 0 | 9.7 | 22.5 | 0.00 | 0.00 | 0.00 | 42 | 1005.3 |
| 20260505025305 | 8 | 0 | 9.7 | 20.9 | 0.00 | 0.00 | 0.00 | 42 | 1005.3 |
| 20260505024804 | 8 | 0 | 9.7 | 19.3 | 0.00 | 0.00 | 0.00 | 42 | 1005.2 |
| 20260505023803 | 8 | 0 | 11.3 | 20.9 | 0.00 | 0.00 | 0.00 | 42 | 1004.9 |
| 20260505023304 | 8 | 0 | 14.5 | 32.2 | 0.00 | 0.00 | 0.00 | 42 | 1004.8 |
| 20260505022803 | 8 | 0 | 14.5 | 24.1 | 0.00 | 0.00 | 0.00 | 42 | 1004.6 |
| 20260505022304 | 9 | 0 | 14.5 | 32.2 | 0.00 | 0.00 | 0.00 | 42 | 1004.5 |
| 20260505021803 | 9 | 0 | 19.3 | 35.4 | 0.00 | 0.00 | 0.00 | 42 | 1004.4 |
| 20260505021303 | 9 | 0 | 17.7 | 32.2 | 0.00 | 0.00 | 0.00 | 42 | 1004.2 |
| 20260505020303 | 9 | 0 | 4.8 | 14.5 | 0.00 | 0.00 | 0.00 | 42 | 1003.9 |
| 20260505015803 | 9 | 0 | 9.7 | 24.1 | 0.00 | 0.00 | 0.00 | 41 | 1003.8 |
| 20260505015304 | 10 | 0 | 9.7 | 32.2 | 0.00 | 0.00 | 0.00 | 41 | 1003.7 |
| 20260505014803 | 10 | 0 | 11.3 | 24.1 | 0.00 | 0.00 | 0.00 | 41 | 1003.6 |
| 20260505014303 | 10 | 0 | 11.3 | 22.5 | 0.00 | 0.00 | 0.00 | 41 | 1003.5 |
| 20260505013804 | 10 | 0 | 9.7 | 19.3 | 0.00 | 0.00 | 0.00 | 41 | 1003.4 |
| 20260505013303 | 10 | 0 | 11.3 | 27.4 | 0.00 | 0.00 | 0.00 | 41 | 1003.4 |
| 20260505012803 | 10 | 0 | 9.7 | 32.2 | 0.00 | 0.00 | 0.00 | 41 | 1003.2 |
| 20260505012304 | 10 | 0 | 12.9 | 27.4 | 0.00 | 0.00 | 0.00 | 41 | 1003.2 |
| 20260505011803 | 10 | 0 | 11.3 | 25.7 | 0.00 | 0.00 | 0.00 | 41 | 1003.1 |
| 20260505010804 | 10 | 0 | 11.3 | 29.0 | 0.00 | 0.00 | 0.00 | 41 | 1002.9 |
| 20260505010304 | 11 | 0 | 14.5 | 35.4 | 0.00 | 0.00 | 0.00 | 41 | 1002.8 |
| 20260505005804 | 11 | 0 | 8.0 | 32.2 | 0.00 | 0.00 | 0.00 | 39 | 1002.6 |
| 20260505005304 | 11 | 0 | 16.1 | 29.0 | 0.00 | 0.00 | 0.00 | 39 | 1002.6 |
| 20260505004804 | 11 | 0 | 12.9 | 24.1 | 0.00 | 0.00 | 0.00 | 39 | 1002.4 |
| 20260505004304 | 11 | 0 | 14.5 | 29.0 | 0.00 | 0.00 | 0.00 | 39 | 1002.4 |
| 20260505003804 | 11 | 0 | 16.1 | 32.2 | 0.00 | 0.00 | 0.00 | 39 | 1002.4 |
| 20260505002804 | 11 | 0 | 16.1 | 27.4 | 0.00 | 0.00 | 0.00 | 39 | 1002.2 |
| 20260505002304 | 11 | 0 | 16.1 | 40.2 | 0.00 | 0.00 | 0.00 | 39 | 1002.2 |
| 20260505001803 | 12 | 0 | 12.9 | 32.2 | 0.00 | 0.00 | 0.00 | 39 | 1002.1 |
| 20260505001304 | 12 | 0 | 11.3 | 27.4 | 0.00 | 0.00 | 0.00 | 39 | 1002.0 |
| 20260505000804 | 12 | 0 | 17.7 | 37.0 | 0.00 | 0.00 | 0.00 | 39 | 1001.9 |
| 20260505000303 | 12 | 0 | 14.5 | 32.2 | 0.00 | 0.00 | 0.00 | 39 | 1001.8 |
| 20260504235804 | 12 | 0 | 14.5 | 29.0 | 0.00 | 0.00 | 0.00 | 36 | 1001.7 |
| 20260504235304 | 12 | 0 | 11.3 | 32.2 | 0.00 | 0.00 | 0.00 | 36 | 1001.7 |
| 20260504234804 | 12 | 0 | 19.3 | 33.8 | 0.00 | 0.00 | 0.00 | 36 | 1001.7 |
| 20260504234304 | 13 | 0 | 14.5 | 24.1 | 0.00 | 0.00 | 0.00 | 36 | 1001.6 |
| 20260504233804 | 13 | 0 | 9.7 | 29.0 | 0.00 | 0.00 | 0.00 | 36 | 1001.6 |
| 20260504233304 | 13 | 0 | 17.7 | 32.2 | 0.00 | 0.00 | 0.00 | 36 | 1001.4 |
| 20260504232804 | 13 | 0 | 22.5 | 37.0 | 0.00 | 0.00 | 0.00 | 36 | 1001.5 |
| 20260504232304 | 13 | 326 | 9.7 | 35.4 | 0.00 | 0.00 | 0.00 | 36 | 1001.4 |
| 20260504231304 | 13 | 314 | 16.1 | 27.4 | 0.00 | 0.00 | 0.00 | 36 | 1001.2 |
| 20260504230803 | 14 | 308 | 19.3 | 33.8 | 0.00 | 0.00 | 0.00 | 36 | 1001.1 |
| 20260504230304 | 14 | 319 | 20.9 | 33.8 | 0.00 | 0.00 | 0.00 | 36 | 1000.9 |
| 20260504225804 | 15 | 318 | 17.7 | 29.0 | 0.00 | 0.00 | 0.00 | 33 | 1000.8 |
| 20260504225304 | 15 | 355 | 11.3 | 22.5 | 0.00 | 0.00 | 0.00 | 33 | 1000.7 |
| 20260504224804 | 14 | 0 | 17.7 | 38.6 | 0.00 | 0.00 | 0.00 | 33 | 1000.7 |
| 20260504224304 | 14 | 0 | 20.9 | 40.2 | 0.00 | 0.00 | 0.00 | 33 | 1000.8 |
| 20260504223804 | 15 | 312 | 19.3 | 38.6 | 0.00 | 0.00 | 0.00 | 33 | 1000.5 |
| 20260504223304 | 15 | 296 | 19.3 | 33.8 | 0.00 | 0.00 | 0.00 | 33 | 1000.4 |
| 20260504222804 | 15 | 309 | 12.9 | 29.0 | 0.00 | 0.00 | 0.00 | 33 | 1000.4 |
| 20260504222305 | 15 | 0 | 19.3 | 35.4 | 0.00 | 0.00 | 0.00 | 33 | 1000.3 |
| 20260504221804 | 15 | 301 | 16.1 | 32.2 | 0.00 | 0.00 | 0.00 | 33 | 1000.1 |
| 20260504221304 | 15 | 0 | 17.7 | 29.0 | 0.00 | 0.00 | 0.00 | 33 | 1000.0 |
| 20260504220804 | 15 | 0 | 14.5 | 32.2 | 0.00 | 0.00 | 0.00 | 33 | 999.9 |
| 20260504220303 | 15 | 324 | 16.1 | 32.2 | 0.00 | 0.00 | 0.00 | 33 | 999.8 |
| 20260504215803 | 16 | 303 | 19.3 | 37.0 | 0.00 | 0.00 | 0.00 | 31 | 999.8 |
| 20260504215305 | 16 | 314 | 14.5 | 37.0 | 0.00 | 0.00 | 0.00 | 31 | 999.7 |
| 20260504214803 | 16 | 286 | 16.1 | 33.8 | 0.00 | 0.00 | 0.00 | 31 | 999.6 |
| 20260504213803 | 16 | 0 | 16.1 | 41.8 | 0.00 | 0.00 | 0.00 | 31 | 999.4 |
| 20260504212804 | 16 | 0 | 20.9 | 32.2 | 0.00 | 0.00 | 0.00 | 31 | 999.7 |
| 20260504211304 | 16 | 0 | 14.5 | 24.1 | 0.00 | 0.00 | 0.00 | 31 | 999.4 |
| 20260504210304 | 15 | 291 | 12.9 | 37.0 | 0.00 | 0.00 | 0.00 | 31 | 999.5 |
| 20260504205804 | 16 | 0 | 14.5 | 24.1 | 0.00 | 0.00 | 0.00 | 28 | 999.5 |
| 20260504205304 | 16 | 309 | 8.0 | 27.4 | 0.00 | 0.00 | 0.00 | 28 | 999.5 |
| 20260504204804 | 16 | 315 | 9.7 | 29.0 | 0.00 | 0.00 | 0.00 | 28 | 999.5 |
| 20260504204304 | 16 | 0 | 16.1 | 32.2 | 0.00 | 0.00 | 0.00 | 28 | 999.5 |
| 20260504203304 | 16 | 357 | 16.1 | 32.2 | 0.00 | 0.00 | 0.00 | 28 | 999.4 |
| 20260504202803 | 16 | 323 | 14.5 | 32.2 | 0.00 | 0.00 | 0.00 | 28 | 999.5 |
| 20260504202304 | 16 | 321 | 20.9 | 40.2 | 0.00 | 0.00 | 0.00 | 28 | 999.5 |
| 20260504201803 | 16 | 324 | 16.1 | 41.8 | 0.00 | 0.00 | 0.00 | 28 | 999.2 |
| 20260504201303 | 16 | 304 | 16.1 | 29.0 | 0.00 | 0.00 | 0.00 | 28 | 999.2 |
| 20260504200804 | 16 | 310 | 20.9 | 41.8 | 0.00 | 0.00 | 0.00 | 28 | 999.1 |
| 20260504194802 | 17 | 325 | 16.1 | 33.8 | 0.00 | 0.00 | 0.00 | 32 | 998.9 |
| 20260504194303 | 17 | 0 | 17.7 | 32.2 | 0.00 | 0.00 | 0.00 | 32 | 998.9 |
| 20260504193803 | 17 | 294 | 17.7 | 37.0 | 0.00 | 0.00 | 0.00 | 32 | 998.7 |
| 20260504193303 | 18 | 292 | 14.5 | 38.6 | 0.00 | 0.00 | 0.00 | 32 | 998.6 |
| 20260504192802 | 18 | 302 | 16.1 | 35.4 | 0.00 | 0.00 | 0.00 | 32 | 998.7 |
| 20260504192304 | 18 | 324 | 16.1 | 38.6 | 0.00 | 0.00 | 0.00 | 32 | 998.7 |
| 20260504191803 | 18 | 302 | 12.9 | 32.2 | 0.00 | 0.00 | 0.00 | 32 | 998.5 |
| 20260504191302 | 17 | 249 | 16.1 | 32.2 | 0.00 | 0.00 | 0.00 | 32 | 998.3 |
| 20260504190802 | 17 | 284 | 19.3 | 33.8 | 0.00 | 0.00 | 0.00 | 32 | 998.4 |
| 20260504190303 | 17 | 320 | 16.1 | 32.2 | 0.00 | 0.00 | 0.00 | 32 | 998.2 |
| 20260504185803 | 18 | 279 | 19.3 | 35.4 | 0.00 | 0.00 | 0.00 | 33 | 998.2 |
| 20260504185304 | 18 | 265 | 16.1 | 38.6 | 0.00 | 0.00 | 0.00 | 33 | 998.1 |
| 20260504184803 | 17 | 283 | 14.5 | 37.0 | 0.00 | 0.00 | 0.00 | 33 | 998.0 |
| 20260504184303 | 17 | 275 | 14.5 | 32.2 | 0.00 | 0.00 | 0.00 | 33 | 998.0 |
| 20260504183803 | 17 | 312 | 20.9 | 37.0 | 0.00 | 0.00 | 0.00 | 33 | 998.1 |
| 20260504182803 | 17 | 359 | 17.7 | 33.8 | 0.00 | 0.00 | 0.00 | 33 | 998.0 |
| 20260504182304 | 17 | 351 | 16.1 | 29.0 | 0.00 | 0.00 | 0.00 | 33 | 998.0 |
| 20260504181802 | 17 | 0 | 16.1 | 45.1 | 0.00 | 0.00 | 0.00 | 33 | 997.9 |
| 20260504181303 | 18 | 311 | 16.1 | 38.6 | 0.00 | 0.00 | 0.00 | 33 | 997.9 |
| 20260504180803 | 18 | 274 | 12.9 | 40.2 | 0.00 | 0.00 | 0.00 | 33 | 997.7 |
| 20260504180302 | 17 | 296 | 11.3 | 32.2 | 0.00 | 0.00 | 0.00 | 33 | 997.6 |
| 20260504175803 | 17 | 319 | 11.3 | 22.5 | 0.00 | 0.00 | 0.00 | 36 | 997.7 |
| 20260504175304 | 17 | 275 | 11.3 | 27.4 | 0.00 | 0.00 | 0.00 | 36 | 997.6 |
| 20260504174802 | 17 | 310 | 16.1 | 32.2 | 0.00 | 0.00 | 0.00 | 36 | 997.6 |
| 20260504174303 | 17 | 290 | 9.7 | 20.9 | 0.00 | 0.00 | 0.00 | 36 | 997.5 |
| 20260504173803 | 17 | 317 | 14.5 | 27.4 | 0.00 | 0.00 | 0.00 | 36 | 997.5 |
| 20260504173303 | 17 | 314 | 14.5 | 32.2 | 0.00 | 0.00 | 0.00 | 36 | 997.5 |
| 20260504172802 | 17 | 0 | 9.7 | 22.5 | 0.00 | 0.00 | 0.00 | 36 | 997.5 |
| 20260504171803 | 17 | 352 | 16.1 | 27.4 | 0.00 | 0.00 | 0.00 | 36 | 997.5 |
| 20260504171303 | 17 | 322 | 14.5 | 37.0 | 0.00 | 0.00 | 0.00 | 36 | 997.5 |
| 20260504170803 | 17 | 302 | 11.3 | 25.7 | 0.00 | 0.00 | 0.00 | 36 | 997.6 |
| 20260504170303 | 17 | 304 | 14.5 | 25.7 | 0.00 | 0.00 | 0.00 | 36 | 997.7 |
| 20260504160303 | 17 | 302 | 20.9 | 41.8 | 0.00 | 0.00 | 0.00 | 45 | 997.4 |
| 20260504150802 | 17 | 0 | 12.9 | 25.7 | 0.00 | 0.00 | 0.00 | 46 | 996.9 |
| 20260504150302 | 17 | 0 | 12.9 | 25.7 | 0.00 | 0.00 | 0.00 | 46 | 996.9 |
| 20260504141303 | 17 | 0 | 11.3 | 32.2 | 0.00 | 0.00 | 0.00 | 42 | 996.6 |
| 20260504140802 | 17 | 326 | 14.5 | 37.0 | 0.00 | 0.00 | 0.00 | 42 | 996.6 |
| 20260504140302 | 17 | 315 | 14.5 | 24.1 | 0.00 | 0.00 | 0.00 | 42 | 996.6 |
| 20260504130802 | 16 | 0 | 8.0 | 20.9 | 0.00 | 0.00 | 0.00 | 49 | 996.5 |
| 20260504130302 | 15 | 0 | 8.0 | 22.5 | 0.00 | 0.00 | 0.00 | 49 | 996.6 |
| 20260504120302 | 13 | 0 | 9.7 | 24.1 | 0.00 | 0.00 | 0.00 | 52 | 995.9 |